TimeAKST,TemperatureF,Dew PointF,Humidity,Sea Level PressureIn,VisibilityMPH,Wind Direction,Wind SpeedMPH,Gust SpeedMPH,PrecipitationIn,Events,Conditions,WindDirDegrees,DateUTC
12:16 AM,35.6,33.8,93,29.91,10.0,SSE,11.5,16.1,N/A,,Partly Cloudy,160,2013-01-10 09:16:00
12:36 AM,37.4,35.6,93,29.92,10.0,South,6.9,-,N/A,,Scattered Clouds,170,2013-01-10 09:36:00
12:56 AM,37.4,35.6,93,29.93,10.0,South,12.7,-,N/A,,Overcast,180,2013-01-10 09:56:00
1:16 AM,37.4,35.6,93,29.93,10.0,South,11.5,-,N/A,,Overcast,170,2013-01-10 10:16:00
1:36 AM,37.4,35.6,93,29.93,10.0,SSE,10.4,-,N/A,,Mostly Cloudy,160,2013-01-10 10:36:00
1:56 AM,37.4,35.6,93,29.93,10.0,SSE,8.1,-,N/A,,Overcast,160,2013-01-10 10:56:00
2:16 AM,37.4,35.6,93,29.94,10.0,South,16.1,-,N/A,,Overcast,170,2013-01-10 11:16:00
2:36 AM,37.4,35.6,93,29.94,10.0,South,15.0,-,N/A,,Overcast,170,2013-01-10 11:36:00
2:56 AM,37.4,35.6,93,29.95,10.0,South,11.5,-,N/A,,Overcast,170,2013-01-10 11:56:00
3:16 AM,37.4,35.6,93,29.94,10.0,South,11.5,-,N/A,,Overcast,170,2013-01-10 12:16:00
3:36 AM,37.4,35.6,93,29.95,10.0,South,13.8,-,N/A,,Overcast,180,2013-01-10 12:36:00
3:56 AM,37.4,35.6,93,29.95,10.0,South,16.1,-,N/A,,Overcast,170,2013-01-10 12:56:00
4:16 AM,37.4,35.6,93,29.94,10.0,SSE,17.3,-,N/A,,Overcast,160,2013-01-10 13:16:00
4:36 AM,37.4,35.6,93,29.92,10.0,SSE,16.1,-,N/A,,Overcast,160,2013-01-10 13:36:00
4:56 AM,37.4,35.6,93,29.92,10.0,SE,9.2,16.1,N/A,,Overcast,140,2013-01-10 13:56:00
5:16 AM,35.6,35.6,100,29.93,10.0,SSE,8.1,-,N/A,,Overcast,150,2013-01-10 14:16:00
5:36 AM,35.6,35.6,100,29.93,10.0,SE,4.6,-,N/A,,Overcast,140,2013-01-10 14:36:00
5:56 AM,35.6,35.6,100,29.91,10.0,Calm,Calm,-,N/A,,Overcast,0,2013-01-10 14:56:00
6:16 AM,35.6,35.6,100,29.91,10.0,SE,3.5,-,N/A,,Overcast,140,2013-01-10 15:16:00
6:36 AM,35.6,35.6,100,29.91,10.0,Calm,Calm,-,N/A,,Overcast,0,2013-01-10 15:36:00
6:56 AM,35.6,35.6,100,29.91,10.0,SE,4.6,-,N/A,,Mostly Cloudy,140,2013-01-10 15:56:00
7:16 AM,35.6,35.6,100,29.89,10.0,Calm,Calm,-,N/A,,Mostly Cloudy,0,2013-01-10 16:16:00
7:36 AM,33.8,32.0,93,29.89,10.0,Calm,Calm,-,N/A,,Scattered Clouds,0,2013-01-10 16:36:00
7:56 AM,33.8,33.8,100,29.89,10.0,Calm,Calm,-,N/A,,Clear,0,2013-01-10 16:56:00
8:16 AM,33.8,33.8,100,29.88,10.0,NNE,3.5,-,N/A,,Clear,30,2013-01-10 17:16:00
8:36 AM,33.8,33.8,100,29.88,10.0,Calm,Calm,-,N/A,,Clear,0,2013-01-10 17:36:00
8:56 AM,33.8,33.8,100,29.90,10.0,ESE,3.5,-,N/A,,Partly Cloudy,120,2013-01-10 17:56:00
9:16 AM,33.8,33.8,100,29.89,10.0,ENE,3.5,-,N/A,,Partly Cloudy,70,2013-01-10 18:16:00
9:36 AM,33.8,33.8,100,29.88,10.0,Calm,Calm,-,N/A,,Scattered Clouds,0,2013-01-10 18:36:00
9:56 AM,33.8,33.8,100,29.88,10.0,Calm,Calm,-,N/A,,Scattered Clouds,0,2013-01-10 18:56:00
10:16 AM,33.8,32.0,93,29.88,10.0,Calm,Calm,-,N/A,,Scattered Clouds,0,2013-01-10 19:16:00
10:36 AM,35.6,35.6,100,29.86,10.0,Calm,Calm,-,N/A,,Mostly Cloudy,0,2013-01-10 19:36:00
10:56 AM,35.6,35.6,100,29.85,10.0,Calm,Calm,-,N/A,,Mostly Cloudy,0,2013-01-10 19:56:00
11:16 AM,37.4,35.6,93,29.85,10.0,SSE,4.6,-,N/A,,Mostly Cloudy,150,2013-01-10 20:16:00
11:36 AM,37.4,35.6,93,29.85,10.0,ENE,4.6,-,N/A,,Overcast,70,2013-01-10 20:36:00
11:56 AM,37.4,35.6,93,29.81,10.0,ENE,6.9,-,N/A,,Overcast,60,2013-01-10 20:56:00
12:16 PM,37.4,35.6,93,29.79,10.0,NE,3.5,-,N/A,,Mostly Cloudy,50,2013-01-10 21:16:00
12:36 PM,37.4,37.4,100,29.77,10.0,NE,6.9,-,N/A,,Mostly Cloudy,40,2013-01-10 21:36:00
12:56 PM,37.4,37.4,100,29.75,10.0,NE,3.5,-,N/A,,Mostly Cloudy,50,2013-01-10 21:56:00
1:16 PM,37.4,37.4,100,29.72,10.0,NE,8.1,-,N/A,,Mostly Cloudy,50,2013-01-10 22:16:00
1:36 PM,37.4,35.6,93,29.71,10.0,ENE,4.6,-,N/A,,Overcast,60,2013-01-10 22:36:00
1:56 PM,37.4,35.6,93,29.70,10.0,NE,3.5,-,N/A,,Overcast,40,2013-01-10 22:56:00
2:16 PM,39.2,37.4,93,29.67,10.0,ENE,6.9,-,N/A,,Overcast,70,2013-01-10 23:16:00
2:36 PM,37.4,35.6,93,29.64,10.0,NE,8.1,-,N/A,,Overcast,40,2013-01-10 23:36:00
2:56 PM,37.4,35.6,93,29.63,6.0,NE,8.1,16.1,N/A,,Overcast,50,2013-01-10 23:56:00
3:16 PM,37.4,37.4,100,29.61,6.0,East,8.1,-,N/A,,Overcast,90,2013-01-11 00:16:00
3:36 PM,37.4,37.4,100,29.59,6.0,ENE,3.5,-,N/A,,Overcast,60,2013-01-11 00:36:00
3:56 PM,37.4,37.4,100,29.56,3.0,ENE,5.8,23.0,N/A,,Overcast,70,2013-01-11 00:56:00
4:16 PM,39.2,37.4,93,29.55,5.0,East,6.9,-,N/A,,Overcast,80,2013-01-11 01:16:00
4:36 PM,39.2,39.2,100,29.54,5.0,East,4.6,-,N/A,,Overcast,80,2013-01-11 01:36:00
4:56 PM,39.2,37.4,93,29.55,4.0,Calm,Calm,-,N/A,,Overcast,0,2013-01-11 01:56:00
5:16 PM,39.2,37.4,93,29.57,4.0,SE,8.1,-,N/A,,Overcast,140,2013-01-11 02:16:00
5:36 PM,39.2,37.4,93,29.56,4.0,Calm,Calm,-,N/A,,Overcast,0,2013-01-11 02:36:00
5:56 PM,37.4,35.6,93,29.56,3.0,NE,3.5,-,N/A,,Overcast,50,2013-01-11 02:56:00
6:16 PM,37.4,37.4,100,29.57,3.0,NE,3.5,-,N/A,,Overcast,40,2013-01-11 03:16:00
6:36 PM,37.4,37.4,100,29.58,3.0,Calm,Calm,-,N/A,,Overcast,0,2013-01-11 03:36:00
6:56 PM,37.4,37.4,100,29.56,3.0,North,4.6,-,N/A,,Overcast,10,2013-01-11 03:56:00
7:16 PM,37.4,35.6,93,29.59,3.0,NW,8.1,-,N/A,,Overcast,310,2013-01-11 04:16:00
7:36 PM,35.6,33.8,93,29.60,3.0,NW,6.9,-,N/A,,Overcast,320,2013-01-11 04:36:00
8:16 PM,35.6,33.8,93,29.64,6.0,NW,16.1,-,N/A,,Overcast,310,2013-01-11 05:16:00
8:36 PM,35.6,35.6,100,29.66,10.0,NW,12.7,-,N/A,,Mostly Cloudy,310,2013-01-11 05:36:00
8:56 PM,37.4,35.6,93,29.67,10.0,NNW,11.5,-,N/A,,Mostly Cloudy,340,2013-01-11 05:56:00
9:16 PM,37.4,33.8,87,29.68,10.0,NW,13.8,21.9,N/A,,Mostly Cloudy,320,2013-01-11 06:16:00
9:36 PM,37.4,33.8,87,29.70,10.0,WNW,20.7,-,N/A,,Mostly Cloudy,300,2013-01-11 06:36:00
9:56 PM,37.4,33.8,87,29.71,10.0,WNW,16.1,-,N/A,,Partly Cloudy,290,2013-01-11 06:56:00
10:16 PM,37.4,33.8,87,29.73,10.0,WNW,15.0,24.2,N/A,,Partly Cloudy,290,2013-01-11 07:16:00
10:36 PM,35.6,32.0,87,29.74,10.0,WNW,9.2,-,N/A,,Partly Cloudy,300,2013-01-11 07:36:00
10:56 PM,35.6,32.0,87,29.78,10.0,WNW,8.1,-,N/A,,Clear,300,2013-01-11 07:56:00
11:16 PM,35.6,32.0,87,29.79,10.0,WNW,12.7,-,N/A,,Clear,300,2013-01-11 08:16:00
11:36 PM,35.6,32.0,87,29.79,10.0,WNW,9.2,-,N/A,,Clear,290,2013-01-11 08:36:00
11:56 PM,35.6,32.0,87,29.81,10.0,West,10.4,-,N/A,,Clear,280,2013-01-11 08:56:00